Regional Weather Roundup
Issued by NWS Green Bay, WI

Home | Current Version | Previous Version | Graphics & Text | Print | Product List | Glossary Off
Versions: 1 2 3 4 5 6 7 8 9 10 11 12 13 14 15 16 17 18 19 20 21 22 23 24 25 26 27 28 29 30 31 32 33 34 35 36 37 38 39 40 41 42 43 44 45 46 47 48 49 50

000
ASUS43 KGRB 300211
RWRGRB

NORTH-CENTRAL AND NORTHEAST WISCONSIN REGIONAL WEATHER ROUNDUP
NATIONAL WEATHER SERVICE GREEN BAY WI
900 PM CDT FRI JUL 29 2016

WIZ005-009-010>012-018-019-300300-
NORTH CENTRAL WISCONSIN

CITY           SKY/WX    TMP DP  RH WIND       PRES   REMARKS
IRONWOOD       CLEAR     63  59  88 CALM      30.05S
MANITOWISH WTR CLEAR     66  60  78 N6        30.07R
ARBOR VITAE    PTCLDY    68  61  78 N3        30.07R
EAGLE RIVER    MOCLDY    64  57  80 CALM      30.07R
LAND O LAKES   MOCLDY    68  57  68 N7        30.08R
RHINELANDER    PTCLDY    68  59  73 CALM      30.08R
PHILLIPS       PTCLDY    67  60  77 N6        30.04S
ANTIGO         CLEAR     62  58  87 CALM      30.07S
TOMAHAWK       PTCLDY    62  59  88 CALM      30.07R
MERRILL        CLEAR     67  61  79 E3        30.07R
$$

WIZ013-073-300300-
NORTHEAST WISCONSIN

CITY           SKY/WX    TMP DP  RH WIND       PRES   REMARKS
IRON MOUNTAIN  PTCLDY    68  53  58 E3        30.06R
MARINETTE      CLEAR    N/A N/A N/A NE6       30.05S
OCONTO         CLOUDY    68  58  69 NE3       30.04R
$$

WIZ017-030-035>037-045-300300-
CENTRAL WISCONSIN

CITY           SKY/WX    TMP DP  RH WIND       PRES   REMARKS
MEDFORD        CLEAR     64  62  94 CALM      30.06R
WAUSAU         MOCLDY    66  61  84 E5        30.04R
MOSINEE        CLEAR     68  64  88 E5        30.06R
MARSHFIELD     CLEAR     67  61  81 CALM      30.04R
WISC RAPIDS    CLOUDY    69  62  78 E3        30.04R
STEVENS POINT  CLOUDY    66  61  82 E3        30.05R
WAUPACA        CLOUDY    71  61  70 NE3       30.04R
SHAWANO        CLOUDY    70  58  65 E5        30.05R
CLINTONVILLE   CLOUDY    68  55  64 CALM      30.03S
WAUTOMA        CLOUDY    68  64  87 NE5       30.03R
$$

WIZ038-039-048-051-300300-
FOX VALLEY

CITY           SKY/WX    TMP DP  RH WIND       PRES   REMARKS
NWS GREEN BAY  CLOUDY    68  58  70 E6        30.03S
APPLETON       MOCLDY    72  50  46 E8        30.02R
OSHKOSH        CLOUDY    71  56  58 NE8       30.02S
FOND DU LAC    CLOUDY    70  59  68 NE8       30.03R
$$

WIZ022-050-052-300300-
EAST CENTRAL WISCONSIN

CITY           SKY/WX    TMP DP  RH WIND       PRES   REMARKS
EPHRAIM        FAIR      66  55  68 NE3       30.04S
WASHINGTON ISL NOT AVBL
STURGEON BAY   CLEAR     67  56  67 CALM      30.05R
MANITOWOC      CLOUDY    69  58  67 NE6       30.03R
SHEBOYGAN      CLOUDY    69  57  65 NE12      30.02R
$$

LMZ563-521-522-541>543-300300-
LAKESHORE

STATION/POSITION TIME  TEMP    WIND        PRES    VSBY  WAVE
                       AIR SEA DIR/SP/G                  HT/PER
                 (UTC) (F)     (DEG/KT/KT) (MB)    (MI)  (FT/S)
SHEBOYGAN LKSHOR 0200   66      30/  8/  9 1016.5R
KEWAUNEE LKSHORE 0100                      1016.3
ALGOMA MARINA    0113           30/  9/ 13   N/A
NORTHPORT PIER   0100   71      50/  6/  8 1016.9S
N MID LAKE BUOY  0150   71 70   50/ 10/ 12 1016.6R         1/ 3
S GREEN BAY BUOY 0100   70 70   70/ 10/ 12 1016.5
SISTER BAY LKSHO 0121   69      CALM  /  3   N/A
CHAMBERS ISLAND  0100   72      40/  7/  8 1017.3R
MENOMINEE LKSHOR 0100                      1016.3
$$




USA.gov is the U.S. government's official web portal to all federal, state and local government web resources and services.